EW8359 Weather Reports


time (UTC)temp
F
wind
direction
speed
knots
gust
knots
rain 1hr
in
rain 24hr
in
rain mn
in
humidity
%
barometer
mb
20260510181541 69 103 0.0 7.0 0.00 0.52 0.02 59 1008.8
20260510180048 69 149 0.0 6.1 0.00 0.52 0.02 59 1009.2
20260510174536 68 167 0.0 6.1 0.00 0.61 0.02 61 1009.5
20260510173032 67 199 0.0 5.2 0.00 0.61 0.02 64 1009.6
20260510171527 66 209 1.7 7.8 0.00 0.61 0.02 65 1009.6
20260510170023 65 211 0.0 4.3 0.00 0.61 0.02 68 1009.9
20260510164537 64 189 0.0 5.2 0.00 0.63 0.02 68 1009.9
20260510163020 63 133 0.0 4.3 0.00 0.63 0.02 72 1010.1
20260510161515 63 184 0.0 0.9 0.00 0.63 0.02 76 1010.2
20260510160013 62 216 0.0 2.6 0.00 0.63 0.02 77 1010.1
20260510154509 61 146 0.0 4.3 0.00 0.63 0.02 79 1010.3
20260510153005 58 294 0.0 2.6 0.00 0.63 0.02 82 1010.5
20260510151505 58 114 0.0 3.5 0.00 0.63 0.02 83 1011.0
20260510150001 58 113 0.0 3.5 0.00 0.63 0.02 87 1010.8
20260510144558 57 276 0.0 1.7 0.00 0.63 0.02 87 1010.8
20260510143058 56 188 0.0 0.9 0.00 0.63 0.02 88 1010.6
20260510141554 55 150 0.0 3.5 0.00 0.63 0.02 89 1010.7
20260510140050 55 137 0.0 3.5 0.00 0.63 0.02 92 1010.8
20260510134548 54 154 0.9 6.1 0.00 0.63 0.02 96 1011.0
20260510133047 54 171 0.0 1.7 0.00 0.63 0.02 96 1010.5
20260510131544 52 135 0.0 2.6 0.00 0.63 0.02 96 1010.8
20260510130039 51 150 0.0 2.6 0.00 0.63 0.02 96 1010.8
20260510124557 51 151 0.0 0.0 0.00 0.63 0.02 96 1010.9
20260510123035 50 262 0.0 2.6 0.00 0.63 0.02 96 1011.0
20260510121533 50 117 0.0 1.7 0.00 0.63 0.02 96 1011.3
20260510120033 49 190 0.0 1.7 0.00 0.63 0.02 96 1010.7
20260510114528 49 206 0.0 0.0 0.00 0.63 0.02 96 1010.8
20260510113033 49 206 0.0 0.0 0.00 0.63 0.02 96 1010.6
20260510111531 48 206 0.0 1.7 0.00 0.63 0.02 96 1010.5
20260510110021 47 101 0.0 0.0 0.00 0.63 0.02 96 1010.2
20260510104524 47 5 0.0 0.0 0.00 0.63 0.02 96 1009.9
20260510103017 47 5 0.0 0.0 0.00 0.63 0.02 96 1009.8
20260510101518 47 5 0.0 0.0 0.00 0.63 0.02 96 1009.7
20260510100015 46 5 0.0 0.0 0.01 0.63 0.02 96 1010.0
20260510094512 46 5 0.0 0.0 0.01 0.63 0.02 96 1009.6
20260510093012 46 5 0.0 0.0 0.01 0.63 0.02 96 1009.7
20260510091522 46 5 0.0 0.0 0.01 0.63 0.02 96 1009.7
20260510090013 46 5 0.0 0.0 0.00 0.62 0.01 96 1009.8
20260510084509 46 5 0.0 0.0 0.00 0.62 0.01 96 1009.8
20260510083008 46 5 0.0 0.0 0.00 0.62 0.01 96 1009.8
20260510081522 46 5 0.0 0.0 0.00 0.62 0.01 96 1009.6
20260510080009 46 5 0.0 0.0 0.00 0.62 0.01 96 1009.9
20260510074507 46 5 0.0 0.0 0.00 0.62 0.01 96 1009.9
20260510073003 46 5 0.0 0.0 0.00 0.62 0.01 96 1010.0
20260510071502 45 5 0.0 0.0 0.01 0.62 0.01 96 1009.6
20260510070108 45 5 0.0 0.0 0.01 0.62 0.01 96 1009.7
20260510064610 45 5 0.0 0.0 0.01 0.62 0.01 96 1009.8
20260510063056 45 5 0.0 0.0 0.01 0.62 0.01 96 1009.9
20260510061554 45 5 0.0 0.0 0.00 0.61 0.00 96 1010.3
20260510060052 45 5 0.0 0.0 0.00 0.61 0.00 96 1010.4
20260510054549 45 5 0.0 0.0 0.00 0.61 0.00 96 1010.4
20260510053048 45 5 0.0 0.0 0.00 0.61 0.00 95 1010.7
20260510051546 45 5 0.0 0.0 0.00 0.61 0.00 95 1010.8
20260510050043 44 5 0.0 0.0 0.00 0.61 0.00 95 1010.6
20260510044548 44 5 0.0 0.0 0.00 0.61 0.00 95 1010.7
20260510043038 44 5 0.0 0.0 0.00 0.61 0.00 95 1010.8
20260510041539 44 5 0.0 0.0 0.01 0.61 0.00 95 1011.0
20260510040034 44 5 0.0 0.0 0.01 0.61 0.00 95 1010.8
20260510034532 44 5 0.0 0.0 0.02 0.61 0.61 95 1011.0
20260510033030 44 5 0.0 0.0 0.03 0.61 0.61 95 1011.1
20260510031535 44 5 0.0 0.0 0.04 0.60 0.60 95 1011.4
20260510030029 44 5 0.0 0.0 0.08 0.60 0.60 95 1011.3
20260510024533 44 68 0.0 0.0 0.08 0.59 0.59 95 1011.5
20260510023028 44 49 0.0 0.0 0.07 0.57 0.57 95 1011.4
20260510021529 44 59 0.0 0.0 0.06 0.56 0.56 95 1011.6
20260510020027 44 59 0.0 0.0 0.02 0.52 0.52 95 1011.8
20260510014530 44 59 0.0 0.0 0.01 0.51 0.51 95 1011.9
20260510013026 44 59 0.0 0.0 0.02 0.51 0.51 95 1011.9
20260510011528 44 59 0.0 0.0 0.01 0.50 0.50 95 1011.7
20260510010026 44 61 0.0 0.0 0.01 0.50 0.50 95 1011.5
20260510004525 44 65 0.0 0.0 0.01 0.50 0.50 95 1011.7
20260510003034 44 67 0.0 0.0 0.01 0.49 0.49 95 1011.4
20260510001525 44 9 0.0 1.7 0.02 0.49 0.49 95 1011.2
20260510000026 44 53 0.0 0.0 0.02 0.49 0.49 94 1011.1
20260509234535 44 53 0.0 0.0 0.03 0.49 0.49 94 1011.2
20260509233034 44 36 0.0 0.0 0.05 0.48 0.48 94 1011.3
20260509231524 44 59 0.0 0.0 0.06 0.47 0.47 94 1011.4
20260509230025 44 25 0.0 0.0 0.08 0.47 0.47 94 1011.5
20260509224518 44 25 0.0 0.0 0.08 0.46 0.46 93 1011.5
20260509223018 44 37 0.0 0.0 0.06 0.43 0.43 93 1011.6
20260509221517 44 301 0.0 0.0 0.06 0.41 0.41 93 1011.6
20260509220020 44 144 0.0 0.9 0.07 0.39 0.39 93 1011.8
20260509214516 44 26 0.0 0.0 0.06 0.38 0.38 93 1011.9
20260509213016 45 20 0.0 2.6 0.06 0.37 0.37 93 1012.1
20260509211515 45 267 0.0 0.0 0.04 0.35 0.35 92 1012.0
20260509210014 45 57 0.0 0.0 0.02 0.32 0.32 93 1012.0
20260509204510 45 55 0.0 0.9 0.02 0.32 0.32 93 1011.9
20260509203008 46 59 0.0 0.9 0.03 0.31 0.31 93 1012.1
20260509201512 46 86 0.0 3.5 0.05 0.31 0.31 93 1012.0
20260509200007 46 84 0.0 2.6 0.07 0.30 0.30 93 1012.2
20260509194509 46 24 0.0 1.7 0.10 0.30 0.30 93 1012.4
20260509193006 45 104 0.0 0.0 0.11 0.28 0.28 92 1012.7
20260509191505 45 106 0.0 0.0 0.12 0.26 0.26 91 1012.9
20260509190011 45 106 0.0 0.0 0.11 0.23 0.23 91 1012.8
20260509184512 45 111 0.0 0.9 0.12 0.20 0.20 90 1012.9
20260509183003 45 144 0.0 0.0 0.12 0.17 0.17 90 1013.2